Location: ??????
(41.3164°N, 22.6615°E)
Time: 00:18:04
(UTC+00:00)

NOAA 16 DEB - Visible Passes

Search period start: 15 August 2022 00:00
Search period end: 25 August 2022 00:00
Orbit: 836 x 892 km, 98.8° (Epoch: 14 August)

Date Brightness Start Highest point End Pass type
(mag) Time Alt. Az. Time Alt. Az. Time Alt. Az.
15 Aug ? 18:15:27 11° ESE 18:20:06 29° ENE 18:24:55 10° N visible
15 Aug ? 19:57:45 23° SSW 20:00:51 41° W 20:06:13 10° NNW visible
16 Aug ? 18:07:44 10° ESE 18:12:17 25° ENE 18:16:51 10° N visible
16 Aug ? 19:49:51 25° SSW 19:52:56 48° W 19:58:26 10° NNW visible
17 Aug ? 18:00:15 10° ESE 18:04:30 22° ENE 18:08:44 10° NNE visible
17 Aug ? 19:41:59 27° SSW 19:45:02 56° W 19:50:37 10° NNW visible
18 Aug ? 17:52:49 10° ESE 17:56:43 19° ENE 18:00:35 10° NNE visible
18 Aug ? 19:34:05 28° S 19:37:07 66° WSW 19:42:47 10° NNW visible
19 Aug ? 17:45:29 10° E 17:48:56 17° ENE 17:52:21 10° NNE visible
19 Aug ? 19:26:12 29° S 19:29:13 77° WSW 19:34:55 10° NNW visible
20 Aug ? 19:18:19 30° SSE 19:21:20 88° WSW 19:27:02 10° NNW visible
20 Aug ? 21:01:13 10° WSW 21:03:00 11° W 21:04:48 10° WNW visible
21 Aug ? 19:10:26 29° SSE 19:13:26 80° ENE 19:19:07 10° NNW visible
21 Aug ? 20:52:44 11° WSW 20:55:00 14° W 20:57:49 10° WNW visible
22 Aug ? 19:02:33 28° SSE 19:05:34 69° ENE 19:11:12 10° N visible
22 Aug ? 20:44:51 14° WSW 20:47:00 16° W 20:50:28 10° NW visible
23 Aug ? 18:54:40 27° SE 18:57:41 59° ENE 19:03:14 10° N visible
23 Aug ? 20:36:58 16° WSW 20:39:00 19° W 20:42:59 10° NW visible
24 Aug ? 18:46:47 25° SE 18:49:50 51° ENE 18:55:16 10° N visible
24 Aug ? 20:29:04 19° WSW 20:31:02 23° W 20:35:23 10° NW visible
